Fergus Falls, MN

9:14 PM CST on December 15, 2019 (GMT -0600)
Fergus Falls Municipal-Mickelson

Weather History for KFFM - October, 2019

Change the Weather History Date:

Wednesday, October 16, 2019

  Actual Average Record
Temperature  
Mean Temperature 38 °F -  
Max Temperature 42 °F 52 °F 79 °F (1953)
Min Temperature 35 °F 32 °F 20 °F (1952)
Degree Days  
Heating Degree Days 26    
Moisture  
Dew Point 35 °F    
Average Humidity 86    
Maximum Humidity 93    
Minimum Humidity 76    
Precipitation  
Precipitation 0.00 in - - ()
Sea Level Pressure  
Sea Level Pressure 30.10 in    
Wind  
Wind Speed 6 mph ()    
Max Wind Speed 13 mph    
Max Gust Speed 17 mph    
Visibility 10.0 miles    
Events      
Averages and records for this station are not official NWS values.
T = Trace of Precipitation, MM = Missing Value Source: Averaged Metar Reports

Daily Weather History Graph

Daily Weather History Graph

Search for Another Location

Airport or City:

Astronomy

Oct. 16, 2019 Rise Set
Actual Time 7:42 AM CDT 6:36 PM CDT
Civil Twilight 7:12 AM CDT 7:07 PM CDT
Nautical Twilight 6:37 AM CDT 7:41 PM CDT
Astronomical Twilight 6:02 AM CDT 8:16 PM CDT
Moon 8:22 PM CDT 10:21 AM CDT
Length of Visible Light 11h 54m
Length of Day
10h 53m
Waning Gibbous, 92% of the Moon is Illuminated
Oct 16
Waning Gibbous
Oct 21
Last Quarter
Oct 27
New
Nov 4
First Quarter
Nov 12
Full

Hourly Weather History & Observations

Time (CDT) Temp. Windchill Dew Point Humidity Pressure Visibility Wind Dir Wind Speed Gust Speed Precip Events Conditions
12:18 AM 37.4 °F 29.3 °F 33.8 °F 87% 30.15 in 10.0 mi NNW 12.7 mph 17.3 mph N/A   Overcast
12:36 AM 37.4 °F 30.3 °F 33.8 °F 87% 30.15 in 10.0 mi NNW 10.4 mph - N/A   Overcast
12:56 AM 37.4 °F 30.8 °F 33.8 °F 87% 30.15 in 10.0 mi NNW 9.2 mph - N/A   Overcast
1:15 AM 37.4 °F 30.8 °F 33.8 °F 87% 30.15 in 10.0 mi NNW 9.2 mph - N/A   Overcast
1:16 AM 37.4 °F 30.8 °F 33.8 °F 87% 30.15 in 10.0 mi NNW 9.2 mph - N/A   Overcast
1:35 AM 37.4 °F 30.8 °F 33.8 °F 87% 30.15 in 10.0 mi NW 9.2 mph - N/A   Overcast
1:39 AM 37.4 °F 32.1 °F 33.8 °F 87% 30.15 in 10.0 mi NW 6.9 mph - N/A   Overcast
1:58 AM 37.4 °F 30.8 °F 33.8 °F 87% 30.16 in 10.0 mi NW 9.2 mph - N/A   Overcast
2:16 AM 37.4 °F 31.4 °F 33.8 °F 87% 30.16 in 10.0 mi NW 8.1 mph - N/A   Overcast
2:35 AM 37.4 °F 30.8 °F 33.8 °F 87% 30.16 in 10.0 mi NNW 9.2 mph - N/A   Overcast
2:36 AM 37.4 °F 30.8 °F 33.8 °F 87% 30.16 in 10.0 mi NNW 9.2 mph - N/A   Overcast
2:55 AM 37.4 °F 31.4 °F 33.8 °F 87% 30.16 in 10.0 mi NNW 8.1 mph - N/A   Overcast
3:16 AM 37.4 °F 32.1 °F 33.8 °F 87% 30.16 in 10.0 mi NW 6.9 mph - N/A   Overcast
3:36 AM 37.4 °F 30.8 °F 33.8 °F 87% 30.16 in 10.0 mi NW 9.2 mph - N/A   Overcast
3:55 AM 37.4 °F 32.1 °F 33.8 °F 87% 30.16 in 10.0 mi NNW 6.9 mph - N/A   Overcast
3:56 AM 37.4 °F 32.1 °F 33.8 °F 87% 30.16 in 10.0 mi NNW 6.9 mph - N/A   Overcast
4:15 AM 37.4 °F 32.8 °F 33.8 °F 87% 30.15 in 10.0 mi NNW 5.8 mph - N/A   Overcast
4:19 AM 37.4 °F 33.8 °F 33.8 °F 87% 30.15 in 10.0 mi NNW 4.6 mph - N/A   Overcast
4:37 AM 35.6 °F 30.7 °F 33.8 °F 93% 30.15 in 10.0 mi NW 5.8 mph - N/A   Overcast
5:15 AM 37.4 °F 34.9 °F 33.8 °F 87% 30.15 in 10.0 mi NW 3.5 mph - N/A   Overcast
5:16 AM 37.4 °F 34.9 °F 33.8 °F 87% 30.15 in 10.0 mi NW 3.5 mph - N/A   Overcast
5:35 AM 37.4 °F 33.8 °F 33.8 °F 87% 30.15 in 10.0 mi NW 4.6 mph - N/A   Overcast
5:36 AM 37.4 °F 32.8 °F 33.8 °F 87% 30.15 in 10.0 mi NW 5.8 mph - N/A   Overcast
5:59 AM 37.4 °F 30.8 °F 35.6 °F 93% 30.15 in 10.0 mi NNW 9.2 mph - N/A   Overcast
6:16 AM 37.4 °F 31.4 °F 35.6 °F 93% 30.15 in 10.0 mi NW 8.1 mph - N/A   Overcast
6:36 AM 37.4 °F 33.8 °F 35.6 °F 93% 30.14 in 10.0 mi NW 4.6 mph - N/A   Overcast
6:55 AM 37.4 °F 33.8 °F 35.6 °F 93% 30.15 in 10.0 mi NNW 4.6 mph - N/A   Overcast
6:56 AM 37.4 °F 33.8 °F 35.6 °F 93% 30.15 in 10.0 mi NNW 4.6 mph - N/A   Overcast
7:15 AM 37.4 °F 30.8 °F 35.6 °F 93% 30.14 in 10.0 mi North 9.2 mph - N/A   Overcast
7:19 AM 37.4 °F 32.1 °F 35.6 °F 93% 30.14 in 10.0 mi NW 6.9 mph - N/A   Overcast
7:38 AM 37.4 °F 32.1 °F 35.6 °F 93% 30.14 in 10.0 mi NW 6.9 mph - N/A   Overcast
7:55 AM 37.4 °F 32.8 °F 35.6 °F 93% 30.14 in 10.0 mi NW 5.8 mph - N/A   Overcast
8:15 AM 37.4 °F 33.8 °F 35.6 °F 93% 30.14 in 10.0 mi NNW 4.6 mph - N/A   Overcast
8:16 AM 37.4 °F 33.8 °F 35.6 °F 93% 30.14 in 10.0 mi NNW 4.6 mph - N/A   Overcast
8:35 AM 37.4 °F 33.8 °F 35.6 °F 93% 30.14 in 10.0 mi NNW 4.6 mph - N/A   Overcast
8:58 AM 37.4 °F 31.4 °F 35.6 °F 93% 30.14 in 10.0 mi NW 8.1 mph - N/A   Overcast
9:16 AM 37.4 °F 32.1 °F 35.6 °F 93% 30.15 in 10.0 mi NNW 6.9 mph - N/A   Overcast
9:35 AM 37.4 °F 34.9 °F 35.6 °F 93% 30.15 in 10.0 mi NNW 3.5 mph - N/A   Overcast
9:55 AM 37.4 °F 33.8 °F 35.6 °F 93% 30.15 in 10.0 mi NW 4.6 mph - N/A   Overcast
9:56 AM 37.4 °F 32.8 °F 35.6 °F 93% 30.15 in 10.0 mi NW 5.8 mph - N/A   Overcast
10:15 AM 37.4 °F - 35.6 °F 93% 30.15 in 10.0 mi Calm Calm - N/A   Overcast
10:20 AM 37.4 °F - 35.6 °F 93% 30.16 in 10.0 mi Calm Calm - N/A   Overcast
10:37 AM 37.4 °F - 35.6 °F 93% 30.15 in 10.0 mi Calm Calm - N/A   Overcast
10:55 AM 37.4 °F - 35.6 °F 93% 30.14 in 10.0 mi Calm Calm - N/A   Overcast
11:15 AM 39.2 °F - 35.6 °F 87% 30.14 in 10.0 mi Calm Calm - N/A   Overcast
11:16 AM 39.2 °F - 35.6 °F 87% 30.14 in 10.0 mi Calm Calm - N/A   Overcast
11:35 AM 39.2 °F - 35.6 °F 87% 30.15 in 10.0 mi Calm Calm - N/A   Overcast
11:36 AM 39.2 °F - 35.6 °F 87% 30.15 in 10.0 mi Calm Calm - N/A   Overcast
11:59 AM 39.2 °F - 35.6 °F 87% 30.15 in 10.0 mi Calm Calm - N/A   Overcast
12:16 PM 39.2 °F - 35.6 °F 87% 30.14 in 10.0 mi Calm Calm - N/A   Overcast
12:36 PM 41.0 °F 38.0 °F 35.6 °F 81% 30.14 in 10.0 mi WNW 4.6 mph - N/A   Overcast
12:55 PM 41.0 °F 39.0 °F 35.6 °F 81% 30.13 in 10.0 mi WNW 3.5 mph - N/A   Overcast
12:56 PM 41.0 °F 39.0 °F 35.6 °F 81% 30.13 in 10.0 mi WNW 3.5 mph - N/A   Overcast
1:15 PM 41.0 °F 38.0 °F 35.6 °F 81% 30.12 in 10.0 mi West 4.6 mph - N/A   Overcast
1:19 PM 41.0 °F - 35.6 °F 81% 30.12 in 10.0 mi Calm Calm - N/A   Overcast
1:37 PM 42.8 °F - 35.6 °F 76% 30.11 in 10.0 mi Calm Calm - N/A   Overcast
1:55 PM 42.8 °F 41.1 °F 35.6 °F 76% 30.11 in 10.0 mi West 3.5 mph - N/A   Overcast
2:15 PM 42.8 °F - 35.6 °F 76% 30.09 in 10.0 mi Calm Calm - N/A   Overcast
2:35 PM 42.8 °F - 35.6 °F 76% 30.09 in 10.0 mi Calm Calm - N/A   Overcast
2:36 PM 42.8 °F - 35.6 °F 76% 30.09 in 10.0 mi Calm Calm - N/A   Overcast
2:59 PM 42.8 °F 41.1 °F 35.6 °F 76% 30.07 in 10.0 mi SSW 3.5 mph - N/A   Overcast
3:17 PM 42.8 °F - 35.6 °F 76% 30.07 in 10.0 mi Calm Calm - N/A   Overcast
3:36 PM 42.8 °F - 35.6 °F 76% 30.06 in 10.0 mi Calm Calm - N/A   Overcast
3:55 PM 42.8 °F - 35.6 °F 76% 30.06 in 10.0 mi Calm Calm - N/A   Overcast
3:56 PM 42.8 °F - 35.6 °F 76% 30.06 in 10.0 mi Calm Calm - N/A   Overcast
4:15 PM 42.8 °F 40.1 °F 35.6 °F 76% 30.05 in 10.0 mi SSE 4.6 mph - N/A   Overcast
4:19 PM 42.8 °F 41.1 °F 35.6 °F 76% 30.05 in 10.0 mi South 3.5 mph - N/A   Overcast
4:38 PM 42.8 °F 40.1 °F 35.6 °F 76% 30.04 in 10.0 mi SSE 4.6 mph - N/A   Mostly Cloudy
4:56 PM 42.8 °F 39.3 °F 35.6 °F 76% 30.05 in 10.0 mi SSW 5.8 mph - N/A   Scattered Clouds
5:19 PM 42.8 °F - 35.6 °F 76% 30.04 in 10.0 mi North - - N/A   Mostly Cloudy
5:35 PM 42.8 °F 39.3 °F 35.6 °F 76% 30.03 in 10.0 mi South 5.8 mph - N/A   Scattered Clouds
5:36 PM 42.8 °F 39.3 °F 35.6 °F 76% 30.03 in 10.0 mi South 5.8 mph - N/A   Scattered Clouds
5:55 PM 42.8 °F 39.3 °F 35.6 °F 76% 30.03 in 10.0 mi South 5.8 mph - N/A   Scattered Clouds
5:56 PM 42.8 °F 39.3 °F 35.6 °F 76% 30.03 in 10.0 mi South 5.8 mph - N/A   Scattered Clouds
6:18 PM 42.8 °F 40.1 °F 35.6 °F 76% 30.02 in 10.0 mi South 4.6 mph - N/A   Scattered Clouds
6:36 PM 42.8 °F 40.1 °F 35.6 °F 76% 30.02 in 10.0 mi SSE 4.6 mph - N/A   Mostly Cloudy
6:55 PM 41.0 °F 38.0 °F 35.6 °F 81% 30.02 in 10.0 mi SSE 4.6 mph - N/A   Scattered Clouds
6:56 PM 41.0 °F 38.0 °F 35.6 °F 81% 30.02 in 10.0 mi SSE 4.6 mph - N/A   Scattered Clouds
7:15 PM 41.0 °F 38.0 °F 35.6 °F 81% 30.02 in 10.0 mi SSE 4.6 mph - N/A   Clear
7:16 PM 41.0 °F 39.0 °F 35.6 °F 81% 30.02 in 10.0 mi SSE 3.5 mph - N/A   Clear
7:35 PM 39.2 °F 37.0 °F 35.6 °F 87% 30.02 in 10.0 mi SSE 3.5 mph - N/A   Clear
7:40 PM 39.2 °F 37.0 °F 35.6 °F 87% 30.02 in 10.0 mi SSE 3.5 mph - N/A   Clear
7:58 PM 39.2 °F 35.9 °F 35.6 °F 87% 30.02 in 10.0 mi SSE 4.6 mph - N/A   Clear
8:15 PM 39.2 °F 37.0 °F 35.6 °F 87% 30.02 in 10.0 mi SSE 3.5 mph - N/A   Clear
8:35 PM 39.2 °F 37.0 °F 35.6 °F 87% 30.02 in 10.0 mi SSE 3.5 mph - N/A   Clear
8:55 PM 39.2 °F 37.0 °F 35.6 °F 87% 30.02 in 10.0 mi SSE 3.5 mph - N/A   Clear
8:56 PM 39.2 °F 37.0 °F 35.6 °F 87% 30.02 in 10.0 mi SSE 3.5 mph - N/A   Clear
9:19 PM 37.4 °F 32.8 °F 35.6 °F 93% 30.02 in 10.0 mi SE 5.8 mph - N/A   Clear
9:36 PM 37.4 °F 32.1 °F 35.6 °F 93% 30.01 in 10.0 mi SE 6.9 mph - N/A   Clear
9:56 PM 37.4 °F 33.8 °F 35.6 °F 93% 30.02 in 10.0 mi SSE 4.6 mph - N/A   Clear
10:15 PM 35.6 °F 31.7 °F 33.8 °F 93% 30.02 in 10.0 mi SSE 4.6 mph - N/A   Scattered Clouds
10:16 PM 35.6 °F 31.7 °F 33.8 °F 93% 30.02 in 10.0 mi SSE 4.6 mph - N/A   Scattered Clouds
10:35 PM 35.6 °F 32.8 °F 33.8 °F 93% 30.02 in 10.0 mi SE 3.5 mph - N/A   Scattered Clouds
10:39 PM 37.4 °F 33.8 °F 35.6 °F 93% 30.02 in 10.0 mi SE 4.6 mph - N/A   Scattered Clouds
10:58 PM 37.4 °F 33.8 °F 35.6 °F 93% 30.02 in 10.0 mi SE 4.6 mph - N/A   Clear
11:15 PM 35.6 °F 32.8 °F 33.8 °F 93% 30.02 in 10.0 mi SE 3.5 mph - N/A   Clear
11:35 PM 35.6 °F 30.7 °F 33.8 °F 93% 30.01 in 10.0 mi ESE 5.8 mph - N/A   Clear
11:55 PM 35.6 °F 31.7 °F 33.8 °F 93% 30.01 in 10.0 mi SE 4.6 mph - N/A   Clear
11:56 PM 35.6 °F 30.7 °F 33.8 °F 93% 30.01 in 10.0 mi SE 5.8 mph - N/A   Clear